This is the latest recevied weather packets stored in our database for station/object KV9E. If no packets are shown the sender has not sent any weather packets the latest 1 day(s).
| Time | Temp. | Humidity | Pressure | Rain* | Wind** | Luminosity | Snow |
|---|---|---|---|---|---|---|---|
| 1836274808 | 21.11° C | 71% | 1018.4 hPa | 0 mm | 0 m/s | 0 W/m² | - |
| 1836274506 | 21.11° C | 72% | 1018.3 hPa | 0 mm | 0 m/s | 0 W/m² | - |
| 1836274359 | 21.11° C | 70% | 1018.4 hPa | 0 mm | 0 m/s | 0 W/m² | - |
| 1836274198 | 21.11° C | 72% | 1018.6 hPa | 0 mm | 0 m/s | 0 W/m² | - |
| 1836273897 | 21.11° C | 73% | 1018.6 hPa | 0 mm | 0 m/s | 0 W/m² | - |
| 1778054136 | 18.33° C | 75% | 1007.4 hPa | 0 mm | 0.45 m/s, 164° | 0 W/m² | - |
| 1778053832 | 18.33° C | 75% | 1007.2 hPa | 0 mm | 0.89 m/s, 180° | 0 W/m² | - |
| 1778053530 | 18.33° C | 74% | 1007.2 hPa | 0 mm | 0.89 m/s, 225° | 0 W/m² | - |
| 1778053227 | 18.33° C | 74% | 1007 hPa | 0 mm | 0.45 m/s, 165° | 0 W/m² | - |
| 1778052925 | 18.33° C | 73% | 1007.4 hPa | 0 mm | 0 m/s | 0 W/m² | - |
| 1778052621 | 18.33° C | 73% | 1007.3 hPa | 0 mm | 1.34 m/s, 103° | 0 W/m² | - |
| 1778052319 | 18.33° C | 73% | 1007.3 hPa | 0 mm | 0.45 m/s, 165° | 0 W/m² | - |
| 1778052016 | 18.33° C | 73% | 1007.5 hPa | 0 mm | 0.89 m/s, 169° | 0 W/m² | - |
| 1778051715 | 18.33° C | 72% | 1007.3 hPa | 0 mm | 0.89 m/s, 197° | 0 W/m² | - |
| 1778051411 | 18.33° C | 72% | 1007.6 hPa | 0 mm | 0.45 m/s, 162° | 0 W/m² | - |
| 1778051109 | 18.33° C | 72% | 1007.6 hPa | 0 mm | 1.34 m/s, 231° | 0 W/m² | - |
| 1778050806 | 18.33° C | 72% | 1007.5 hPa | 0 mm | 1.34 m/s, 72° | 0 W/m² | - |
| 1778050503 | 18.33° C | 72% | 1007.6 hPa | 0 mm | 0.89 m/s, 131° | 0 W/m² | - |
| 1778050199 | 18.33° C | 71% | 1007.4 hPa | 0 mm | 0.89 m/s, 106° | 0 W/m² | - |
| 1778049896 | 18.33° C | 71% | 1007.8 hPa | 0 mm | 1.34 m/s, 119° | 0 W/m² | - |
| 1778049592 | 18.33° C | 71% | 1007.8 hPa | 0 mm | 1.79 m/s, 116° | 0 W/m² | - |
| 1778049290 | 18.33° C | 71% | 1008 hPa | 0 mm | 0 m/s | 0 W/m² | - |
| 1778048987 | 18.33° C | 71% | 1007.9 hPa | 0 mm | 1.34 m/s, 170° | 0 W/m² | - |
| 1778048686 | 18.33° C | 71% | 1008.2 hPa | 0 mm | 1.79 m/s, 187° | 0 W/m² | - |
| 1778048382 | 18.33° C | 70% | 1007.9 hPa | 0 mm | 0.45 m/s, 147° | 0 W/m² | - |
* Rain latest hour (hover to see other rain measurements)
** Current wind speed in m/s (hover to see current wind gust speed)